EW0531 Weather Reports


Display with metric or nautical units.
time (UTC)temp
F
wind
direction
speed
MPH
gust
MPH
rain 1hr
in
rain 24hr
in
rain mn
in
humidity
%
barometer
mb
20260902000105 61 0 0.0 0.0 0.00 0.00 0.00 84 1021.3
20260901235540 61 0 0.0 0.0 0.00 0.00 0.00 84 1021.3
20260901235038 62 0 0.0 0.0 0.00 0.00 0.00 83 1021.1
20260901234554 62 0 0.0 0.0 0.00 0.00 0.00 84 1021.2
20260901234041 62 0 0.0 0.0 0.00 0.00 0.00 84 1021.1
20260901233537 62 0 0.0 0.0 0.00 0.00 0.00 84 1021.3
20260901233108 62 0 0.0 0.0 0.00 0.00 0.00 84 1021.3
20260901232534 62 0 0.0 0.0 0.00 0.00 0.00 84 1021.2
20260901232039 62 0 0.0 0.0 0.00 0.00 0.00 84 1021.1
20260901231608 62 0 0.0 0.0 0.00 0.00 0.00 84 1021.2
20260901231035 62 0 0.0 0.0 0.00 0.00 0.00 84 1021.3
20260901230538 62 0 0.0 0.0 0.00 0.00 0.00 83 1021.1
20260901230058 62 0 0.0 0.0 0.00 0.00 0.00 83 1021.1
20260901225538 62 0 0.0 0.0 0.00 0.00 0.00 83 1021.1
20260901225034 62 0 0.0 0.0 0.00 0.00 0.00 83 1021.0
20260901224556 62 0 0.0 0.0 0.00 0.00 0.00 83 1021.0
20260901224037 62 0 0.0 0.0 0.00 0.00 0.00 83 1021.1
20260901223537 62 0 0.0 0.0 0.00 0.00 0.00 83 1021.2
20260901223102 62 0 0.0 0.0 0.00 0.00 0.00 83 1021.2
20260901222539 62 0 0.0 0.0 0.00 0.00 0.00 83 1021.2
20260901222034 63 0 0.0 1.0 0.00 0.00 0.00 84 1021.3
20260901221611 63 0 0.0 1.0 0.00 0.00 0.00 84 1021.1
20260901221038 62 0 0.0 0.0 0.00 0.00 0.00 83 1021.1
20260901220534 62 0 0.0 0.0 0.00 0.00 0.00 83 1021.0
20260901220115 62 0 0.0 0.0 0.00 0.00 0.00 83 1020.9
20260901215537 62 0 0.0 0.0 0.00 0.00 0.00 83 1020.9
20260901215038 62 0 0.0 0.0 0.00 0.00 0.00 83 1021.1
20260901214603 62 0 0.0 0.0 0.00 0.00 0.00 83 1021.0
20260901214037 62 0 0.0 0.0 0.00 0.00 0.00 82 1021.1
20260901213537 63 0 0.0 0.0 0.00 0.00 0.00 82 1021.2
20260901213106 63 0 0.0 0.0 0.00 0.00 0.00 82 1021.1
20260901212537 63 0 0.0 0.0 0.00 0.00 0.00 82 1021.2
20260901212042 63 0 0.0 0.0 0.00 0.00 0.00 82 1021.3
20260901211600 63 0 0.0 0.0 0.00 0.00 0.00 82 1021.4
20260901211042 63 0 0.0 2.0 0.00 0.00 0.00 82 1021.4
20260901210537 63 0 0.0 2.0 0.00 0.00 0.00 82 1021.4
20260901210058 63 0 0.0 3.0 0.00 0.00 0.00 82 1021.4
20260901205537 63 254 0.0 3.0 0.00 0.00 0.00 82 1021.2
20260901205041 63 0 1.0 3.0 0.00 0.00 0.00 82 1021.1
20260901204602 63 274 0.0 2.0 0.00 0.00 0.00 81 1021.2
20260901204039 63 0 0.0 2.0 0.00 0.00 0.00 81 1021.2
20260901203537 63 0 0.0 0.0 0.00 0.00 0.00 81 1021.3
20260901203101 64 0 0.0 2.0 0.00 0.00 0.00 81 1021.3
20260901202538 64 0 0.0 2.0 0.00 0.00 0.00 81 1021.4
20260901202037 64 274 0.0 4.0 0.00 0.00 0.00 80 1021.3
20260901201554 64 281 0.0 6.0 0.00 0.00 0.00 80 1021.4
20260901201038 64 248 2.0 7.0 0.00 0.00 0.00 80 1021.2
20260901200537 64 263 2.0 7.0 0.00 0.00 0.00 80 1021.3
20260901200053 64 251 1.0 8.0 0.00 0.00 0.00 80 1021.4
20260901195537 64 228 3.0 8.0 0.00 0.00 0.00 79 1021.3
20260901195039 64 262 3.0 9.0 0.00 0.00 0.00 79 1021.2
20260901194606 64 264 4.0 9.0 0.00 0.00 0.00 79 1021.2
20260901194038 65 229 3.0 8.0 0.00 0.00 0.00 79 1021.0
20260901193537 65 245 3.0 8.0 0.00 0.00 0.00 78 1021.0
20260901193104 65 263 4.0 9.0 0.00 0.00 0.00 78 1020.9
20260901192536 65 217 5.0 9.0 0.00 0.00 0.00 78 1020.9
20260901192038 65 254 4.0 8.0 0.00 0.00 0.00 78 1020.9
20260901191604 65 236 4.0 8.0 0.00 0.00 0.00 77 1020.9
20260901191035 65 222 3.0 10.0 0.00 0.00 0.00 77 1020.8
20260901190533 65 213 4.0 10.0 0.00 0.00 0.00 77 1020.7
20260901190059 65 246 4.0 10.0 0.00 0.00 0.00 76 1020.9
20260901185536 65 263 4.0 9.0 0.00 0.00 0.00 76 1020.9
20260901185035 65 277 3.0 9.0 0.00 0.00 0.00 76 1020.9
20260901184600 66 257 4.0 9.0 0.00 0.00 0.00 76 1020.7
20260901184033 66 246 4.0 8.0 0.00 0.00 0.00 76 1020.8
20260901183540 66 227 2.0 11.0 0.00 0.00 0.00 76 1020.9
20260901183101 66 258 5.0 11.0 0.00 0.00 0.00 75 1020.9
20260901182536 66 251 5.0 10.0 0.00 0.00 0.00 75 1020.9
20260901182037 66 248 3.0 10.0 0.00 0.00 0.00 75 1020.9
20260901181607 66 288 5.0 11.0 0.00 0.00 0.00 75 1021.0
20260901181036 66 248 4.0 11.0 0.00 0.00 0.00 75 1021.1
20260901180535 66 269 5.0 11.0 0.00 0.00 0.00 74 1021.1
20260901175535 66 271 3.0 10.0 0.00 0.00 0.00 74 1021.0
20260901175035 66 250 3.0 12.0 0.00 0.00 0.00 73 1021.0
20260901174603 66 217 7.0 12.0 0.00 0.00 0.00 73 1021.1
20260901174035 67 246 6.0 11.0 0.00 0.00 0.00 73 1021.1
20260901173536 67 237 6.0 11.0 0.00 0.00 0.00 72 1020.9
20260901173101 67 215 5.0 11.0 0.00 0.00 0.00 71 1020.8
20260901172535 67 254 4.0 13.0 0.00 0.00 0.00 71 1021.0
20260901172037 67 180 6.0 13.0 0.00 0.00 0.00 70 1021.0
20260901171607 67 219 5.0 13.0 0.00 0.00 0.00 69 1021.1
20260901171039 68 189 5.0 13.0 0.00 0.00 0.00 68 1021.0
20260901170536 68 255 5.0 12.0 0.00 0.00 0.00 68 1021.1
20260901170059 68 234 6.0 12.0 0.00 0.00 0.00 67 1021.2
20260901165535 68 244 6.0 13.0 0.00 0.00 0.00 65 1021.0
20260901165035 68 255 6.0 16.0 0.00 0.00 0.00 63 1021.0
20260901164555 69 230 7.0 16.0 0.00 0.00 0.00 61 1021.0
20260901164037 70 197 7.0 16.0 0.00 0.00 0.00 61 1021.0
20260901163539 70 206 7.0 16.0 0.00 0.00 0.00 64 1021.0
20260901163105 69 219 8.0 16.0 0.00 0.00 0.00 64 1021.2
20260901162538 70 217 9.0 16.0 0.00 0.00 0.00 62 1021.1
20260901162036 70 229 7.0 16.0 0.00 0.00 0.00 64 1021.0
20260901161610 70 186 6.0 16.0 0.00 0.00 0.00 65 1021.0
20260901161038 70 277 7.0 16.0 0.00 0.00 0.00 63 1021.1
20260901160535 69 198 8.0 15.0 0.00 0.00 0.00 64 1021.0
20260901160111 69 223 7.0 15.0 0.00 0.00 0.00 65 1021.0
20260901155549 69 281 7.0 14.0 0.00 0.00 0.00 67 1021.1
20260901155038 68 235 7.0 13.0 0.00 0.00 0.00 67 1021.0
20260901154559 69 238 6.0 17.0 0.00 0.00 0.00 66 1021.0
20260901154040 69 218 8.0 17.0 0.00 0.00 0.00 65 1020.9
20260901153538 69 228 8.0 17.0 0.00 0.00 0.00 66 1021.0
20260901153055 69 250 7.0 13.0 0.00 0.00 0.00 66 1021.1
20260901152537 68 294 8.0 15.0 0.00 0.00 0.00 66 1021.2
20260901152037 69 228 7.0 15.0 0.00 0.00 0.00 65 1021.2
20260901151607 69 244 5.0 15.0 0.00 0.00 0.00 65 1021.2
20260901151037 69 244 7.0 16.0 0.00 0.00 0.00 64 1021.3
20260901150537 69 250 7.0 16.0 0.00 0.00 0.00 65 1021.2
20260901150107 69 229 4.0 14.0 0.00 0.00 0.00 66 1021.2
20260901145538 69 223 7.0 14.0 0.00 0.00 0.00 64 1021.2
20260901145038 69 249 6.0 15.0 0.00 0.00 0.00 65 1021.2
20260901144608 69 230 9.0 15.0 0.00 0.00 0.00 65 1021.2
20260901144037 69 213 9.0 15.0 0.00 0.00 0.00 63 1021.3
20260901143537 70 211 9.0 16.0 0.00 0.00 0.00 62 1021.1
20260901143108 71 214 9.0 16.0 0.00 0.00 0.00 62 1021.1
20260901142536 70 262 8.0 16.0 0.00 0.00 0.00 63 1021.2
20260901142037 71 233 7.0 15.0 0.00 0.00 0.00 62 1021.4
20260901141600 71 192 6.0 14.0 0.00 0.00 0.00 61 1021.3
20260901141038 71 209 6.0 16.0 0.00 0.00 0.00 62 1021.3
20260901140537 70 239 7.0 17.0 0.00 0.00 0.00 62 1021.3
20260901140111 71 148 7.0 17.0 0.00 0.00 0.00 60 1021.3
20260901135537 72 223 7.0 15.0 0.00 0.00 0.00 60 1021.3
20260901135037 71 200 7.0 13.0 0.00 0.00 0.00 61 1021.1
20260901134559 71 215 4.0 12.0 0.00 0.00 0.00 60 1021.1
20260901134036 71 222 6.0 14.0 0.00 0.00 0.00 61 1021.3
20260901133537 71 275 7.0 16.0 0.00 0.00 0.00 60 1021.3
20260901133057 70 222 6.0 17.0 0.00 0.00 0.00 60 1021.4
20260901132540 70 217 7.0 18.0 0.00 0.00 0.00 62 1021.5
20260901132038 70 238 9.0 18.0 0.00 0.00 0.00 62 1021.5
20260901131606 70 223 8.0 18.0 0.00 0.00 0.00 62 1021.5
20260901131040 70 212 8.0 16.0 0.00 0.00 0.00 62 1021.5
20260901130537 70 222 8.0 16.0 0.00 0.00 0.00 62 1021.5
20260901130104 71 192 9.0 16.0 0.00 0.00 0.00 62 1021.5
20260901125538 70 196 6.0 18.0 0.00 0.00 0.00 61 1021.4
20260901125037 70 207 8.0 18.0 0.00 0.00 0.00 61 1021.3
20260901124609 71 213 7.0 19.0 0.00 0.00 0.00 62 1021.3
20260901124037 71 242 7.0 19.0 0.00 0.00 0.00 62 1021.3
20260901123537 70 298 8.0 17.0 0.00 0.00 0.00 63 1021.4
20260901123057 70 207 8.0 16.0 0.00 0.00 0.00 62 1021.3
20260901122538 70 195 8.0 14.0 0.00 0.00 0.00 62 1021.4
20260901122037 70 188 7.0 17.0 0.00 0.00 0.00 61 1021.4
20260901121554 70 186 9.0 17.0 0.00 0.00 0.00 63 1021.4
20260901121037 69 229 7.0 13.0 0.00 0.00 0.00 62 1021.4
20260901120537 69 250 7.0 13.0 0.00 0.00 0.00 62 1021.4
20260901115538 69 273 3.0 10.0 0.00 0.00 0.00 62 1021.6
20260901115037 69 200 4.0 11.0 0.00 0.00 0.00 61 1021.6
20260901114640 69 240 3.0 11.0 0.00 0.00 0.00 61 1021.6
20260901114037 70 230 6.0 11.0 0.00 0.00 0.00 60 1021.6
20260901113542 70 224 5.0 11.0 0.00 0.00 0.00 59 1021.5
20260901113058 70 252 5.0 11.0 0.00 0.00 0.00 59 1021.5
20260901112537 70 215 5.0 10.0 0.00 0.00 0.00 59 1021.4
20260901112037 70 281 2.0 8.0 0.00 0.00 0.00 57 1021.4
20260901111558 70 251 4.0 9.0 0.00 0.00 0.00 57 1021.5
20260901111038 70 295 3.0 9.0 0.00 0.00 0.00 59 1021.4
20260901110537 70 285 3.0 10.0 0.00 0.00 0.00 58 1021.5
20260901110103 70 197 3.0 11.0 0.00 0.00 0.00 58 1021.5
20260901105537 69 236 5.0 11.0 0.00 0.00 0.00 57 1021.6
20260901105037 69 262 6.0 11.0 0.00 0.00 0.00 57 1021.6
20260901104559 69 232 7.0 12.0 0.00 0.00 0.00 58 1021.7
20260901104038 69 219 3.0 12.0 0.00 0.00 0.00 59 1021.8
20260901103537 69 231 4.0 9.0 0.00 0.00 0.00 62 1021.8
20260901103110 69 290 2.0 10.0 0.00 0.00 0.00 62 1021.8
20260901102538 68 207 3.0 10.0 0.00 0.00 0.00 62 1021.8
20260901102038 68 200 4.0 12.0 0.00 0.00 0.00 63 1021.8
20260901101605 68 237 5.0 12.0 0.00 0.00 0.00 62 1021.9
20260901101037 68 269 4.0 9.0 0.00 0.00 0.00 61 1022.0
20260901100537 68 171 4.0 8.0 0.00 0.00 0.00 61 1021.9
20260901100104 68 273 2.0 7.0 0.00 0.00 0.00 62 1022.0
20260901095537 68 215 1.0 5.0 0.00 0.00 0.00 63 1022.1
20260901095037 67 151 2.0 8.0 0.00 0.00 0.00 63 1022.2
20260901094555 67 172 2.0 10.0 0.00 0.00 0.00 64 1022.1
20260901094038 67 307 3.0 10.0 0.00 0.00 0.00 63 1022.2
20260901093537 66 246 4.0 10.0 0.00 0.00 0.00 66 1022.2
20260901093104 66 274 3.0 9.0 0.00 0.00 0.00 66 1022.2
20260901092538 66 253 4.0 9.0 0.00 0.00 0.00 68 1022.2
20260901092037 66 271 2.0 7.0 0.00 0.00 0.00 69 1022.3
20260901091612 65 239 3.0 8.0 0.00 0.00 0.00 70 1022.2
20260901091037 65 258 4.0 8.0 0.00 0.00 0.00 70 1022.3
20260901090537 65 271 2.0 10.0 0.00 0.00 0.00 72 1022.2
20260901090056 64 250 4.0 10.0 0.00 0.00 0.00 72 1022.2
20260901085537 64 309 3.0 10.0 0.00 0.00 0.00 74 1022.2
20260901085037 64 238 3.0 6.0 0.00 0.00 0.00 75 1022.2
20260901084604 63 254 1.0 8.0 0.00 0.00 0.00 76 1022.2
20260901084037 63 265 3.0 8.0 0.00 0.00 0.00 77 1022.2
20260901083537 63 302 2.0 7.0 0.00 0.00 0.00 78 1022.1
20260901083104 62 245 1.0 4.0 0.00 0.00 0.00 79 1022.0
20260901082538 61 245 1.0 3.0 0.00 0.00 0.00 79 1022.0
20260901082036 61 245 1.0 4.0 0.00 0.00 0.00 79 1022.0
20260901081600 61 245 1.0 4.0 0.00 0.00 0.00 80 1022.0
20260901081037 60 229 2.0 4.0 0.00 0.00 0.00 81 1022.0
20260901080537 60 218 1.0 4.0 0.00 0.00 0.00 81 1022.0
20260901075538 59 263 0.0 3.0 0.00 0.00 0.00 82 1021.9
20260901075038 59 263 0.0 3.0 0.00 0.00 0.00 83 1021.9
20260901074605 58 0 0.0 0.0 0.00 0.00 0.00 84 1021.9
20260901074037 58 0 0.0 0.0 0.00 0.00 0.00 84 1021.9
20260901073537 58 0 0.0 0.0 0.00 0.00 0.00 85 1021.8
20260901073104 57 0 0.0 0.0 0.00 0.00 0.00 85 1021.8
20260901072538 57 0 0.0 0.0 0.00 0.00 0.00 85 1021.7
20260901072038 57 0 0.0 0.0 0.00 0.00 0.00 85 1021.7
20260901071558 56 0 0.0 0.0 0.00 0.00 0.00 86 1021.8
20260901071037 56 0 0.0 0.0 0.00 0.00 0.00 86 1021.7
20260901070537 56 0 0.0 0.0 0.00 0.00 0.00 86 1021.6
20260901070115 56 0 0.0 0.0 0.00 0.00 0.00 86 1021.7
20260901065539 55 0 0.0 0.0 0.00 0.00 0.00 87 1021.6
20260901065037 55 0 0.0 0.0 0.00 0.00 0.00 87 1021.7
20260901064558 55 0 0.0 0.0 0.00 0.00 0.00 88 1021.6
20260901064037 54 0 0.0 0.0 0.00 0.00 0.00 88 1021.6
20260901063538 54 0 0.0 0.0 0.00 0.00 0.00 88 1021.6
20260901063056 54 0 0.0 0.0 0.00 0.00 0.00 89 1021.6
20260901062537 53 0 0.0 0.0 0.00 0.00 0.00 88 1021.5
20260901062037 53 0 0.0 0.0 0.00 0.00 0.00 88 1021.5
20260901061603 52 0 0.0 0.0 0.00 0.00 0.00 88 1021.6
20260901061039 52 0 0.0 0.0 0.00 0.00 0.00 88 1021.4
20260901060539 52 0 0.0 0.0 0.00 0.00 0.00 88 1021.3
20260901060105 52 0 0.0 0.0 0.00 0.00 0.00 88 1021.3
20260901055537 52 0 0.0 0.0 0.00 0.00 0.00 88 1021.3
20260901055038 52 0 0.0 0.0 0.00 0.00 0.00 88 1021.2
20260901054601 52 0 0.0 0.0 0.00 0.00 0.00 88 1021.2
20260901054038 52 0 0.0 0.0 0.00 0.00 0.00 87 1021.1
20260901053536 52 0 0.0 0.0 0.00 0.00 0.00 87 1021.1
20260901053056 52 0 0.0 0.0 0.00 0.00 0.00 87 1021.1
20260901052537 52 0 0.0 0.0 0.00 0.00 0.00 88 1021.1
20260901052037 52 0 0.0 0.0 0.00 0.00 0.00 87 1021.0
20260901051606 52 0 0.0 0.0 0.00 0.00 0.00 87 1020.9
20260901051037 52 0 0.0 0.0 0.00 0.00 0.00 87 1020.9
20260901050538 52 0 0.0 0.0 0.00 0.00 0.00 87 1020.9
20260901050059 52 0 0.0 0.0 0.00 0.00 0.00 87 1020.8
20260901045538 52 0 0.0 0.0 0.00 0.00 0.00 87 1020.9
20260901045037 52 0 0.0 0.0 0.00 0.00 0.00 87 1020.8
20260901044610 52 0 0.0 0.0 0.00 0.00 0.00 87 1020.8
20260901044037 52 0 0.0 0.0 0.00 0.00 0.00 87 1020.9
20260901043537 52 0 0.0 0.0 0.00 0.00 0.00 87 1020.8
20260901043059 52 0 0.0 0.0 0.00 0.00 0.00 87 1021.0
20260901042535 52 0 0.0 0.0 0.00 0.00 0.00 87 1021.0
20260901042033 52 0 0.0 0.0 0.00 0.00 0.00 87 1020.9
20260901041603 52 0 0.0 0.0 0.00 0.00 0.00 86 1020.9
20260901041035 52 0 0.0 0.0 0.00 0.00 0.00 86 1020.9
20260901040533 52 0 0.0 0.0 0.00 0.00 0.00 86 1020.8
20260901040103 52 0 0.0 0.0 0.00 0.00 0.00 86 1020.9
20260901035537 52 0 0.0 0.0 0.00 0.00 0.00 86 1020.9
20260901035032 52 0 0.0 0.0 0.00 0.00 0.00 87 1020.9
20260901034558 52 0 0.0 0.0 0.00 0.00 0.00 86 1020.9
20260901034036 52 0 0.0 0.0 0.00 0.00 0.00 86 1020.8
20260901033533 52 0 0.0 0.0 0.00 0.00 0.00 86 1020.9
20260901033117 52 0 0.0 0.0 0.00 0.00 0.00 85 1020.9
20260901032533 52 0 0.0 0.0 0.00 0.00 0.00 85 1020.9
20260901032034 52 0 0.0 0.0 0.00 0.00 0.00 85 1020.9
20260901031551 52 0 0.0 0.0 0.00 0.00 0.00 85 1020.9
20260901031032 52 0 0.0 0.0 0.00 0.00 0.00 85 1020.9
20260901030534 52 0 0.0 0.0 0.00 0.00 0.00 85 1020.9
20260901030104 52 0 0.0 0.0 0.00 0.00 0.00 85 1020.9
20260901025535 52 0 0.0 0.0 0.00 0.00 0.00 85 1020.9
20260901025033 52 0 0.0 0.0 0.00 0.00 0.00 85 1020.9
20260901024556 52 0 0.0 0.0 0.00 0.00 0.00 85 1020.8
20260901024035 52 0 0.0 0.0 0.00 0.00 0.00 85 1020.9
20260901023536 52 0 0.0 0.0 0.00 0.00 0.00 85 1020.9
20260901023057 52 0 0.0 0.0 0.00 0.00 0.00 84 1020.8
20260901022538 52 0 0.0 0.0 0.00 0.00 0.00 84 1020.9
20260901022035 53 0 0.0 0.0 0.00 0.00 0.00 84 1020.9
20260901021604 53 0 0.0 0.0 0.00 0.00 0.00 84 1020.9
20260901021035 53 0 0.0 2.0 0.00 0.00 0.00 84 1020.9
20260901020537 53 0 0.0 2.0 0.00 0.00 0.00 84 1020.9
20260901020058 53 0 0.0 0.0 0.00 0.00 0.00 83 1021.0
20260901015535 53 0 0.0 0.0 0.00 0.00 0.00 83 1020.9
20260901015035 53 0 0.0 0.0 0.00 0.00 0.00 82 1020.8
20260901014608 53 0 0.0 0.0 0.00 0.00 0.00 82 1020.8
20260901014035 53 0 0.0 0.0 0.00 0.00 0.00 82 1020.8
20260901013534 54 0 0.0 0.0 0.00 0.00 0.00 82 1020.7
20260901013116 54 0 0.0 0.0 0.00 0.00 0.00 81 1020.7
20260901012536 54 0 0.0 0.0 0.00 0.00 0.00 81 1020.6
20260901012037 54 0 0.0 0.0 0.00 0.00 0.00 81 1020.7
20260901011613 54 0 0.0 0.0 0.00 0.00 0.00 81 1020.7
20260901011037 55 0 0.0 0.0 0.00 0.00 0.00 81 1020.7
20260901010538 55 0 0.0 0.0 0.00 0.00 0.00 81 1020.6
20260901010114 55 0 0.0 0.0 0.00 0.00 0.00 81 1020.7
20260901005538 55 0 0.0 0.0 0.00 0.01 0.00 81 1020.6
20260901005041 55 0 0.0 0.0 0.00 0.01 0.00 80 1020.7
20260901004602 55 0 0.0 0.0 0.00 0.01 0.00 80 1020.6
20260901004038 55 0 0.0 0.0 0.00 0.01 0.00 80 1020.6
20260901003538 55 0 0.0 0.0 0.00 0.01 0.00 80 1020.6
20260901003056 55 0 0.0 0.0 0.00 0.01 0.00 80 1020.6
20260901002538 55 0 0.0 3.0 0.00 0.01 0.00 80 1020.5
20260901002038 56 0 0.0 3.0 0.00 0.01 0.00 80 1020.6
20260901001555 56 263 1.0 3.0 0.00 0.01 0.00 79 1020.6
20260901001038 56 263 1.0 4.0 0.00 0.01 0.00 79 1020.6
20260901000538 56 263 1.0 4.0 0.00 0.01 0.00 79 1020.7